Kaltag, AK

10:44 PM AKDT on May 28, 2017 (GMT -0800)
Kaltag

Weather History for PAKV - September, 2013

Change the Weather History Date:

Tuesday, September 3, 2013

  Actual Average (PAGA) Record (PAGA)
Temperature  
Mean Temperature 51 °F -  
Max Temperature 54 °F 56 °F 72 °F (1996)
Min Temperature 48 °F 39 °F 27 °F (1955)
Degree Days  
Heating Degree Days 14    
Growing Degree Days 1 (Base 50)    
Moisture  
Dew Point 50 °F    
Average Humidity 93    
Maximum Humidity 100    
Minimum Humidity 88    
Precipitation  
Precipitation 0.28 in - - ()
Sea Level Pressure  
Sea Level Pressure 29.22 in    
Wind  
Wind Speed 1 mph (NE)    
Max Wind Speed 8 mph    
Max Gust Speed -    
Visibility 9 miles    
Events Rain    
Averages and records for this station are not official NWS values.
T = Trace of Precipitation, MM = Missing Value Source: NWS Daily Summary

Daily Weather History Graph

Daily Weather History Graph

Search for Another Location

Airport or City:

Trip Planner

Search our weather history database for the weather conditions in past years. The results will help you decide how hot, cold, wet, or windy it might be!

Date:

Astronomy

Sep. 03, 2013 Rise Set
Actual Time 7:24 AM AKDT 9:42 PM AKDT
Civil Twilight 6:31 AM AKDT 10:34 PM AKDT
Nautical Twilight 5:18 AM AKDT 11:45 PM AKDT
Astronomical Twilight 3:08 AM AKDT 1:43 AM AKDT
Moon 5:33 AM AKDT (9/3) 8:37 PM AKDT (9/3)
Length of Visible Light 16h 03m
Length of Day
14h 18m
Waning Crescent, 3% of the Moon is Illuminated
Sep 3
Waning Crescent
Sep 5
New
Sep 12
First Quarter
Sep 19
Full
Sep 26
Last Quarter

Hourly Weather History & Observations

Time (AKDT) Temp. Dew Point Humidity Pressure Visibility Wind Dir Wind Speed Gust Speed Precip Events Conditions
12:53 AM 52.0 °F 51.1 °F 97% 29.24 in 9.0 mi Calm Calm - N/A   Overcast
1:53 AM 53.1 °F 51.1 °F 93% 29.24 in 10.0 mi Variable 3.5 mph - 0.00 in Rain Light Rain
2:53 AM 53.1 °F 52.0 °F 96% 29.25 in 10.0 mi Calm Calm - 0.00 in   Overcast
3:53 AM 53.1 °F 51.1 °F 93% 29.25 in 10.0 mi Calm Calm - N/A   Overcast
4:29 AM 51.8 °F 50.0 °F 94% 29.24 in 10.0 mi Calm Calm - N/A   Overcast
4:53 AM 52.0 °F 50.0 °F 93% 29.25 in 10.0 mi Calm Calm - N/A   Overcast
5:12 AM 53.6 °F 50.0 °F 88% 29.24 in 10.0 mi Calm Calm - N/A   Overcast
5:24 AM 51.8 °F 50.0 °F 94% 29.24 in 10.0 mi Calm Calm - N/A   Overcast
5:32 AM 51.8 °F 50.0 °F 94% 29.24 in 10.0 mi Calm Calm - N/A   Overcast
5:53 AM 51.1 °F 50.0 °F 96% 29.25 in 10.0 mi Calm Calm - N/A   Overcast
6:29 AM 50.0 °F 48.2 °F 94% 29.24 in 10.0 mi Calm Calm - N/A   Mostly Cloudy
6:41 AM 50.0 °F 48.2 °F 94% 29.24 in 10.0 mi NE 3.5 mph - N/A   Mostly Cloudy
6:53 AM 51.1 °F 48.9 °F 92% 29.25 in 10.0 mi Calm Calm - N/A   Overcast
7:11 AM 51.8 °F 50.0 °F 94% 29.24 in 10.0 mi Calm Calm - N/A   Overcast
7:53 AM 48.9 °F 46.9 °F 93% 29.24 in 8.0 mi Calm Calm - N/A   Mostly Cloudy
8:04 AM 48.2 °F 46.4 °F 93% 29.23 in 2.5 mi Calm Calm - N/A   Partly Cloudy
8:11 AM 48.2 °F 46.4 °F 93% 29.23 in 10.0 mi Calm Calm - N/A   Partly Cloudy
8:53 AM 48.9 °F 46.9 °F 93% 29.24 in 10.0 mi ENE 3.5 mph - N/A   Mostly Cloudy
9:53 AM 53.1 °F 50.0 °F 89% 29.24 in 10.0 mi NNE 4.6 mph - 0.00 in Rain Light Rain
10:12 AM 51.8 °F 50.0 °F 94% 29.23 in 10.0 mi NNE 4.6 mph - 0.00 in   Overcast
10:53 AM 52.0 °F 48.9 °F 89% 29.23 in 10.0 mi NE 8.1 mph - 0.00 in Rain Light Rain
11:04 AM 51.8 °F 50.0 °F 94% 29.22 in 10.0 mi NNE 8.1 mph - 0.00 in Rain Light Rain
11:26 AM 51.8 °F 50.0 °F 94% 29.22 in 10.0 mi NE 5.8 mph - 0.00 in Rain Light Rain
11:53 AM 52.0 °F 50.0 °F 93% 29.23 in 9.0 mi NE 5.8 mph - 0.04 in Rain Light Rain
12:26 PM 51.8 °F 50.0 °F 94% 29.22 in 9.0 mi NE 4.6 mph - 0.00 in Rain Light Rain
12:53 PM 52.0 °F 50.0 °F 93% 29.22 in 10.0 mi NE 5.8 mph - 0.01 in Rain Light Rain
1:53 PM 53.1 °F 51.1 °F 93% 29.21 in 10.0 mi Calm Calm - 0.02 in Rain Light Rain
2:53 PM 53.1 °F 51.1 °F 93% 29.20 in 9.0 mi Calm Calm - 0.03 in Rain Light Rain
3:21 PM 53.6 °F 51.8 °F 94% 29.19 in 6.0 mi Calm Calm - 0.01 in Rain Light Rain
3:51 PM 53.6 °F 51.8 °F 94% 29.19 in 6.0 mi Calm Calm - 0.03 in Rain Light Rain
3:53 PM 54.0 °F 51.1 °F 90% 29.20 in 6.0 mi Calm Calm - 0.04 in Rain Light Rain
4:46 PM 53.6 °F 51.8 °F 94% 29.18 in 6.0 mi Calm Calm - 0.06 in Rain Light Rain
4:53 PM 54.0 °F 52.0 °F 93% 29.19 in 3.0 mi Calm Calm - 0.08 in Rain Light Rain
4:57 PM 53.6 °F 51.8 °F 94% 29.18 in 2.0 mi Calm Calm - 0.02 in Rain Rain
5:00 PM 53.6 °F 51.8 °F 94% 29.18 in 1.8 mi Calm Calm - 0.03 in Rain Rain
5:04 PM 53.6 °F 53.6 °F 100% 29.18 in 2.0 mi Calm Calm - 0.04 in Rain Rain
5:15 PM 53.6 °F 51.8 °F 94% 29.17 in 5.0 mi Calm Calm - 0.05 in Rain Light Rain
5:53 PM 54.0 °F 52.0 °F 93% 29.18 in 10.0 mi Calm Calm - 0.05 in   Overcast
6:07 PM 53.6 °F 51.8 °F 94% 29.18 in 10.0 mi Calm Calm - 0.00 in Rain Light Rain
6:49 PM 53.6 °F 50.0 °F 88% 29.18 in 10.0 mi Calm Calm - 0.00 in Rain Light Rain
6:53 PM 53.1 °F 51.1 °F 93% 29.18 in 10.0 mi Calm Calm - 0.00 in   Overcast
7:53 PM 53.1 °F 51.1 °F 93% 29.19 in 10.0 mi Calm Calm - N/A   Mostly Cloudy
8:39 PM 53.6 °F 50.0 °F 88% 29.19 in 10.0 mi Calm Calm - N/A   Mostly Cloudy
8:53 PM 52.0 °F 50.0 °F 93% 29.20 in 10.0 mi Calm Calm - 0.01 in Rain Light Rain
9:18 PM 51.8 °F 50.0 °F 94% 29.20 in 10.0 mi Calm Calm - 0.00 in   Overcast
9:32 PM 51.8 °F 51.8 °F 100% 29.20 in 9.0 mi NE 3.5 mph - 0.00 in   Overcast
9:44 PM 51.8 °F 51.8 °F 100% 29.20 in 6.0 mi Calm Calm - 0.00 in Rain Light Rain
9:53 PM 52.0 °F 50.0 °F 93% 29.21 in 10.0 mi Calm Calm - 0.00 in   Overcast
10:53 PM 51.1 °F 48.9 °F 92% 29.22 in 10.0 mi Calm Calm - N/A   Overcast
11:53 PM 50.0 °F 48.9 °F 96% 29.23 in 10.0 mi NE 3.5 mph - N/A   Overcast